www.pogodaiklimat.ru

Погода и климат >> Архив погоды >> Россия >> Якутия >> Иэма


ПОГОДА в Иэме

  • Прогноз погоды в Иэме
  • Монитор погоды в Иэме
  • Климат города

АРХИВ ПОГОДЫ в Иэме

Время (UTC), дата Ветер
(напр.,м/с)
 
Видим.   Явления Облачность Т
(С)
Тd
(С)
f
(%)
Тe
(С)
Тes
(С)
Комфортность P
(гПа)
Po
(гПа)
Тmin
(С)
Tmax
(С)
R
(мм)
R24
(мм)
S
(см)
21 18.06 штиль 0 50 км 4/0
[Cs]
+6.7 +4.6 86 +6 +9 1010.8 932.2 +4.4 0.8
00 19.06 З 1 50 км 4/1 600 м
[Cu med, cong Ci fib]
+15.9 +7.5 57 +17 +26 1008.5 932.0
03 19.06 З 1 50 км 6/5 600 м
[Sc diur, vesp Ac lent Ci fib]
+18.6 +8.6 52 +20 +27 1006.8 931.1
06 19.06 штиль 0 50 км 6/4 600 м
[Sc diur, vesp Ac lent Ci fib]
+17.2 +6.2 48 +17 +23 1005.7 929.7
09 19.06 СЗ 2 50 км 6/4 600 м
[Cb cap Ac cast Cc]
+14.0 +4.2 52 +14 +15 1005.9 929.0 +18.6
12 19.06 Ю 1 50 км в посл. час гроза 8/8 600 м
[Cb cap]
+13.4 +7.5 67 +14 +14 1007.0 929.9
15 19.06 СЗ 1 50 км 6/3 600 м
[Cb cap Ac As Cc]
+5.1 +2.9 86 +4 +4 1009.0 929.5
18 19.06 С 1 50 км 8/5 600 м
[Sc Ac As Cc]
+5.0 +2.3 83 +4 +4 1009.4 929.6
21 19.06 штиль 0 50 км 9/8 600 м
[Sc Cs]
+6.6 +4.5 86 +6 +6 1008.8 929.7 +5.0
00 20.06 З 2 50 км 8/0
[As op Cs]
+12.6 +7.7 72 +12 +15 1006.7 929.5
03 20.06 З 2 50 км в посл. час гроза 6/4 300 м
[Cb cap Ci fib]
+18.0 +8.1 52 +19 +25 1003.8 928.2
06 20.06 В 5 50 км {гроза} 8/8 300 м
[Sc diur, vesp]
+20.3 +6.7 41 +21 +22 комфорт 1002.1 927.2
09 20.06 З 3 50 км 8/6 600 м
[Cb cap Cs]
+13.1 +3.6 52 +12 +13 1004.5 927.5 +22.0
12 20.06 В 1 50 км 6/3 600 м
[Sc As trans]
+14.5 +7.4 62 +15 +15 1004.6 928.0
15 20.06 штиль 0 50 км 6/0
[Ac cuf]
+9.0 +6.2 83 +8 +8 1006.1 928.0
18 20.06 штиль 0 50 км 4/0
[Cs]
+4.9 +3.2 89 +4 +4 1008.2 928.7
21 20.06 З 1 50 км 10/0
[Ac und]
+5.0 +3.3 89 +4 +5 1008.4 929.0 +4.9
00 21.06 штиль 0 50 км 8/0
[Ac trans Cc]
+11.0 +7.7 80 +10 +18 1006.1 928.5
03 21.06 ЮЗ 2 50 км 4/3
[Cb cap As trans Cc]
+17.0 +7.5 54 +17 +25 1002.8 926.9
06 21.06 СЗ 2 50 км {гроза} 6/4 600 м
[Cb cap Ac und Ci]
+20.1 +8.9 48 +22 +26 комфорт 1001.2 926.4
09 21.06 В 4 50 км в посл. час гроза {ливн. осадки} 6/6 600 м
[Cb cap Ac lent Cs]
+17.2 +8.2 55 +17 +18 1002.2 926.5 +20.1 1
12 21.06 В 2 50 км {гроза} 8/6 600 м
[Cb cap Ac und Cs]
+11.7 +8.9 83 +11 +11 1004.4 927.1
15 21.06 штиль 0 50 км 6/3 600 м
[Sc Ac trans Cs]
+8.6 +7.1 90 +8 +8 1005.5 927.3
18 21.06 С 1 50 км 4/0
[Ac As Cs]
+5.7 +4.3 91 +4 +5 1007.2 928.0
21 21.06 штиль 0 50 км 4/0
[Ci fib]
+7.0 +5.4 90 +6 +10 1007.5 928.6 +5.1
00 22.06 З 2 50 км 3/0
[Ci fib]
+15.6 +9.0 65 +16 +24 1004.8 928.5
03 22.06 Ю 1 50 км 9/9 600 м
[Cu hum]
+23.1 +10.4 45 +25 +26 комфорт 1002.1 927.9
06 22.06 ЮВ 1 50 км 9/8 600 м
[Cu hum Ci fib]
+23.0 +8.1 38 +24 +26 комфорт 1002.1 928.8
09 22.06 ЮВ 3 50 км 9/6 600 м
[Cb cap Cs]
+19.6 +6.7 43 +21 +21 комфорт 1003.5 928.3 +25.1
12 22.06 Ю 1 50 км 8/6 600 м
[Sc diur, vesp Cs]
+15.3 +8.2 63 +16 +16 1007.2 930.6
15 22.06 штиль 0 20 км в посл. час дождь 8/0 600 м
[As op Cs]
+11.3 +8.3 82 +11 +11 1009.5 931.7
18 22.06 штиль 0 50 км {дождь} 8/4 600 м
[Sc diur, vesp Cs]
+6.4 +4.3 86 +5 +6 1012.3 932.9
21 22.06 штиль 0 50 км 4/3 600 м
[Sc Cs]
+10.2 +7.9 86 +9 +12 1011.6 933.4 +6.4 0.0
00 23.06 штиль 0 50 км 3/0
[Cs]
+17.9 +10.2 61 +18 +29 1009.5 933.5
03 23.06 ЮЗ 2 50 км 4/3 600 м
[Cu med, cong Cs]
+21.3 +9.9 48 +23 +31 комфорт 1007.4 932.4
06 23.06 З 3 50 км 6/5 600 м
[Cb cap Ac lent Cs]
+23.6 +10.9 45 +25 +28 комфорт 1005.5 931.2
09 23.06 ЮЗ 1 50 км 4/3 600 м
[Cb cap Ac lent Ci fib]
+21.0 +10.8 52 +24 +26 комфорт 1006.7 931.6 +23.6
12 23.06 Ю 1 50 км 6/3 600 м
[Sc diur, vesp Ac lent Cs]
+19.5 +9.8 53 +22 +22 комфорт 1007.3 931.8
15 23.06 В 1 50 км 8/3 600 м
[Sc Ac lent Cs]
+11.2 +8.6 84 +11 +11 1009.8 932.0
18 23.06 штиль 0 50 км 4/0
[Cs]
+8.3 +6.8 90 +7 +8 1011.3 932.6
21 23.06 штиль 0 50 км 3/0
[Ci fib]
+12.1 +8.9 81 +12 +15 1010.4 932.7 +7.4
00 24.06 штиль 0 50 км 4/0
[Ci fib]
+19.8 +11.1 57 +21 +32 комфорт 1007.3 931.9
03 24.06 З 2 50 км ясно +23.7 +8.1 37 +24 +37 комфорт 1004.8 930.5
06 24.06 З 3 50 км 4/3 600 м
[Cu hum Ci fib]
+24.2 +9.3 39 +25 +30 комфорт 1002.8 938.8
09 24.06 СВ 1 50 км 6/6 600 м
[Cu hum Ci fib]
+25.5 +8.2 33 +26 +27 жарко 1001.4 927.8 +27.1
12 24.06 СВ 2 50 км 6/0
[Ci fib]
+22.2 +6.3 36 +23 +23 комфорт 1002.3 927.7
15 24.06 штиль 0 50 км 3/0
[Ci fib]
+13.5 +7.2 66 +13 +13 1005.0 928.1
18 24.06 штиль 0 50 км 3/0
[Ci fib]
+8.2 +5.3 82 +7 +8 1007.2 928.7
21 24.06 штиль 0 50 км ясно +13.9 +12.1 89 +13 +17 1005.2 928.5 +8.2
00 25.06 З 1 50 км 1/0
[Cs]
+19.3 +11.1 59 +21 +32 комфорт 1003.0 927.8
03 25.06 ЮЗ 1 50 км 3/3 600 м
[Sc]
+24.3 +9.5 39 +25 +35 комфорт 1000.3 926.6
06 25.06 Ю 3 50 км 4/3 600 м
[Cu med, cong As trans Cs]
+23.2 +13.2 53 +26 +31 жарко 999.3 925.4
09 25.06 З 4 50 км 4/3 600 м
[Sc Ac cast Cc]
+20.5 +11.9 58 +23 +24 комфорт 999.2 924.6 +25.3
12 25.06 Ю 3 50 км 4/3 600 м
[Sc diur, vesp Ac lent Ci fib]
+20.4 +10.7 54 +22 +23 комфорт 999.2 924.5
15 25.06 СВ 2 50 км 8/5 600 м
[Sc Ac As Ci]
+15.0 +10.2 73 +15 +15 1000.7 924.6
18 25.06 В 1 50 км 4/0
[Ac lent Ci]
+9.2 +7.5 89 +9 +9 1002.2 924.4

 

Местоположение метеостанции Иэма (Якутия, Россия): широта 65.30 долгота 135.80 высота над уровнем моря 675 м.

В архиве по умолчанию представлена погода в Иэме за последнюю неделю. Архивные данные за месяц целиком и за предыдущие месяцы, начиная с января 2011 года, Вы можете получить, выбрав интересующий диапазон дат из раскрывающегося списка и нажав кнопку "Ввод!".


*Определитесь, кто Вы:
робот инопланетянин человек

Внимание! Время в таблицах - всемирное. Для получения местного времени необходимо прибавить поправку, которая в Иэме равна 9 ч.

Смотрите также архив погоды в соседних городах и на ближайших метеорологических станциях:

Погода в Томпо (Якутия, Россия) (150 км)
Погода в Усть-Чарках (Якутия, Россия) (171 км)
Погода в Екюччю (Якутия, Россия) (250 км)
Погода в Батагае (Якутия, Россия) (267 км)
Погода в Себян-Кюеле (Якутия, Россия) (269 км)
Погода в Верхоянске (Якутия, Россия) (274 км)
Погода в Крест-Хальджае (Якутия, Россия) (284 км)
Погода в Теплом Ключе (Якутия, Россия) (284 км)
Погода в Верхоянском Перевозе (Якутия, Россия) (286 км)
Погода в Восточной (Якутия, Россия) (294 км)

Пояснения к столбцам:

Ветер - указаны скорость ветра в м/с - средняя за 10 мин, порывы в срок и между сроками (в фигурных скобках) и направление, откуда дует ветер: С - северный, СВ - северо-восточный, В - восточный, ЮВ - юго-восточный, Ю - южный, ЮЗ - юго-западный, З - западный, СЗ - северо-западный.
Видимость - горизонтальная дальность видимости в метрах или километрах. При видимости от 1 до 10 км при отсутствии осадков обычно наблюдается дымка, при ухудшении видимости до 1 км и менее - туман. В сухую погоду видимость может ухудшаться дымом, пылью или мглою.
Явления - указаны атмосферные явления, наблюдавшиеся в срок или в последний час перед сроком; фигурными скобками обозначены явления, наблюдавшиеся между сроками (за 1-3 часа до срока); квадратными скобками обозначены град или гололедные отложения с указанием их диаметра в мм.
Облачность - указаны через наклонную черту общая и нижняя облачность в баллах и высота нижней границы облаков в метрах; квадратными скобками обозначены формы облаков: Ci - перистые, Cs - перисто-слоистые, Cc - перисто-кучевые, Ac - высококучевые, As - высокослоистые, Sc - слоисто-кучевые, Ns - слоисто-дождевые, Cu - кучевые, Cb - кучево-дождевые. Подробнее классификацию облаков см. в Атласе облаков (PDF).
T - Температура воздуха - температура, измеренная на высоте 2 м над землей.
Td - Температура точки росы - температура, при понижении до которой содержащийся в воздухе водяной пар достигнет насыщения.
f - Относительная влажность воздуха - влажноcть воздуха, измеренная на высоте 2 м над землей.
Te - Эффективная температура - температура, которую ощущает одетый по сезону человек в тени. Характеристика душности погоды. При расчете учитывается влияние влажности воздуха и скорости ветра на теплоощущения человека.
Tes - Эффективная температура на солнце - температура, которую ощущает человек, с поправкой на солнечный нагрев. Характеристика знойности погоды. Зависит от высоты солнца над горизонтом, облачности и скорости ветра. Ночью, в пасмурную погоду, а также при ветре 12 м/с и более поправка равна нулю.
P - Атмосферное давление - приведенное к уровню моря атмосферное давление.
Po - Атмосферное давление - измеренное на уровне метеостанции атмосферное давление.
Tmin - Минимальная температура - минимум температуры воздуха на высоте 2 м над землей.
Tmax - Максимальная температура - максимум температуры воздуха на высоте 2 м над землей.
R - Количество осадков - Количество выпавших осадков за период времени, мм. При наведении курсора мыши на число - период времени, за который выпало указанное количество осадков.
R24 - Количество осадков - Количество выпавших осадков за 24 часа, мм.
S - Снежный покров - Высота снежного покрова, см. При наведении курсора мыши на число - состояние снежного покрова и степень покрытия местности в баллах.